Wind_Speed
4 5 7 7 8 8 7 6 4 3 4 5 5 3 2 3 3 4 3 4 2 5 8 9 12 10 8 7 5 6 6 11 13 12 11 10 9 7 8 9 9 9 8 10 12 12 13 13 13 15 15 14 13 12 14 15 13 11 10 11 11 10 9 8 8 8 8 8 9 9 10 11 13 15 15 13 12 12 12 12 12 12 11 10 8 8
4 7 7 4 7 9 7 5 6 4 3 4 4 4 2 2 4 4 4 5 0 4 7 11 13 10 7 6 4 5 7 10 10 11 11 10 9 5 4 8 8 6 8 10 11 12 14 13 13 16 15 13 14 14 15 15 13 12 11 11 12 10 9 10 10 10 9 9 9 9 10 12 12 13 15 16 16 16 16 15 15 14 12 11 9 9
6 6 5 5 7 9 6 5 6 4 4 3 2 4 3 1 3 5 6 6 3 5 7 11 13 10 8 6 4 3 7 10 8 11 13 12 11 7 4 6 7 5 8 9 9 11 13 14 15 16 16 15 15 15 15 15 15 14 12 12 12 11 10 11 11 11 10 10 10 10 11 13 15 14 15 17 17 17 17 16 16 15 14 13 11 9
6 5 6 7 9 11 6 5 6 4 2 2 2 3 3 2 1 2 7 9 7 6 11 14 13 8 7 7 5 5 8 10 10 13 12 10 10 8 6 7 6 6 6 6 7 9 12 15 14 12 16 18 16 15 17 17 17 16 14 13 13 13 11 11 12 12 12 12 13 14 14 15 17 16 14 15 15 14 14 13 13 13 12 11 11 10
4 5 9 9 10 13 9 6 8 7 4 2 2 3 3 3 1 2 7 10 11 10 13 13 10 5 4 6 6 5 8 10 11 13 12 10 11 11 9 9 6 3 3 3 5 7 11 15 13 11 16 19 15 14 16 19 19 18 16 15 14 15 14 14 14 13 14 15 15 15 14 14 15 13 11 11 11 10 10 10 11 12 11 10 10 9
3 5 11 11 10 12 10 7 8 9 6 2 3 4 4 5 6 7 8 6 6 7 7 4 4 3 3 6 7 6 8 9 10 13 14 13 13 12 10 10 9 6 4 3 4 8 11 14 14 12 17 19 15 13 14 19 21 19 18 17 17 17 17 16 15 14 13 13 12 11 10 9 9 10 10 10 10 9 9 9 10 13 13 11 11 10
3 5 10 12 11 11 10 8 7 8 7 3 3 5 5 6 9 9 6 2 2 4 4 1 0 4 4 5 7 7 9 10 10 12 13 14 13 12 11 9 9 8 7 7 7 8 10 13 13 12 16 18 15 15 17 20 22 20 20 19 18 17 16 15 14 12 11 11 12 12 12 10 9 10 9 8 9 9 8 7 8 11 12 12 11 10
6 9 9 10 11 10 9 7 6 8 7 3 3 8 9 7 8 8 4 3 2 4 4 1 1 5 4 6 8 9 11 11 10 10 12 13 13 12 11 10 11 10 8 8 8 8 9 12 13 11 13 15 15 18 19 20 21 20 20 19 18 17 16 15 14 13 14 15 15 16 15 13 10 10 9 8 9 9 9 8 8 10 11 11 11 10
5 10 10 11 10 8 6 6 8 10 6 2 4 8 8 6 6 6 4 5 3 3 4 2 1 4 4 5 8 9 11 12 12 12 12 13 14 13 12 12 13 12 10 9 10 10 10 12 12 11 13 15 17 19 19 19 19 19 19 18 18 18 16 15 14 14 15 15 15 15 14 13 10 8 8 9 10 10 10 10 10 10 11 11 11 11
3 9 11 11 9 7 5 5 10 11 4 4 7 7 6 4 5 3 3 5 3 2 4 7 6 3 4 6 9 10 11 12 13 13 13 13 14 14 12 13 14 13 11 10 11 11 12 13 13 13 16 17 18 19 19 19 18 19 19 19 19 19 18 16 15 15 14 13 14 14 13 13 10 9 9 10 11 11 12 12 12 12 12 13 12 11
2 4 6 7 6 6 6 6 9 9 6 8 8 7 6 4 3 2 2 3 3 3 4 11 9 3 3 7 9 9 8 13 15 13 13 13 13 13 12 12 14 13 12 12 11 10 12 15 16 17 18 18 18 19 20 20 19 20 21 20 21 21 19 18 16 16 16 15 16 16 15 14 13 12 11 12 13 14 14 14 14 14 13 13 12 11
5 6 4 2 3 6 7 6 4 3 8 10 6 5 6 3 2 2 2 1 4 3 2 8 9 4 4 6 10 12 8 12 16 15 17 16 14 13 11 11 12 12 13 13 10 9 12 14 14 15 17 18 19 19 20 20 20 21 21 22 23 22 20 19 18 17 18 18 18 18 17 16 15 14 14 15 15 15 15 15 14 14 13 12 12 12
4 5 2 1 4 8 9 8 3 1 6 8 5 7 7 4 4 4 3 3 4 2 1 2 5 4 3 2 7 15 15 14 15 16 19 18 16 14 12 10 10 11 12 11 9 8 9 11 11 12 13 16 18 18 20 21 21 21 22 22 24 23 20 19 18 18 19 19 19 18 17 17 16 16 16 16 16 15 14 14 13 14 13 13 13 13
4 2 3 4 4 7 11 10 7 4 7 8 7 8 8 5 5 5 3 1 1 2 2 1 3 2 2 1 0 9 15 15 15 15 17 18 17 15 14 12 11 11 11 11 10 9 8 9 10 11 12 13 14 15 19 23 22 22 22 21 23 22 19 18 18 18 19 19 18 17 17 17 16 17 17 17 17 16 14 13 13 13 12 13 13 13
6 3 6 8 4 7 12 8 6 7 6 5 3 4 6 5 4 4 4 3 3 3 3 3 4 2 3 1 3 2 8 13 15 14 15 16 15 14 14 13 12 11 11 11 11 10 10 11 10 11 12 12 12 14 18 21 21 22 22 21 22 21 19 18 18 18 19 19 18 17 17 17 17 17 17 17 16 16 14 14 14 14 13 13 13 13
5 2 3 4 2 9 12 4 5 9 7 3 1 2 4 4 3 2 1 1 3 4 3 4 3 1 0 1 1 4 11 15 16 16 16 16 14 14 13 13 12 11 11 11 11 10 11 11 11 12 12 12 13 15 17 19 21 21 21 20 20 20 19 18 18 18 19 19 19 18 18 18 18 18 17 16 16 15 15 16 16 15 14 13 13 13
4 3 2 1 2 8 11 8 7 8 6 3 3 5 3 3 4 3 1 2 1 4 4 3 2 1 1 1 4 10 14 15 16 16 17 16 16 15 13 12 12 12 11 11 11 11 11 12 12 12 12 13 15 17 19 21 21 20 20 20 20 20 19 18 18 18 18 19 20 20 19 19 19 19 17 16 16 16 16 17 17 17 16 14 13 14
4 3 1 5 8 6 5 10 10 6 4 5 6 6 4 3 2 2 2 2 2 4 3 2 5 6 4 3 8 14 15 15 16 17 16 16 17 15 13 12 13 13 12 11 11 11 12 13 13 12 12 13 17 20 22 22 21 21 21 20 20 19 18 18 18 18 18 19 19 19 19 19 18 17 17 16 17 17 17 17 17 17 16 16 15 16
3 3 2 6 9 6 3 8 10 4 1 2 5 7 4 3 3 2 2 3 4 4 2 3 6 7 5 5 12 16 16 17 18 18 18 18 17 15 13 14 15 14 13 12 11 10 12 13 13 13 14 15 18 21 21 21 21 21 21 20 20 19 18 18 18 18 18 18 18 17 17 17 17 16 16 17 18 18 18 18 17 17 17 18 18 19
1 2 3 3 4 6 6 7 10 7 1 2 5 7 2 1 3 3 2 2 3 3 2 3 4 5 6 8 16 19 19 21 21 19 19 19 18 16 14 14 15 14 14 13 11 10 13 14 14 14 15 16 17 18 19 20 21 21 20 19 19 19 18 17 18 18 18 18 18 18 17 17 17 17 17 18 19 20 20 20 19 19 19 20 20 21
1 1 4 3 1 4 6 6 9 10 7 5 7 8 4 1 0 2 2 1 1 3 3 3 3 4 4 8 17 22 22 22 22 20 18 17 16 15 15 15 15 15 15 13 10 10 14 15 15 15 15 16 16 17 18 19 20 20 19 19 18 18 17 17 17 17 18 18 18 19 18 18 17 18 20 21 22 22 22 23 23 22 22 22 22 22
2 1 2 4 4 5 5 3 5 10 11 9 8 7 7 5 3 4 4 1 1 1 2 2 2 2 1 2 9 16 19 19 20 18 15 15 16 16 15 16 16 16 15 12 10 11 13 15 15 15 14 15 16 17 17 17 19 19 18 18 17 16 16 15 16 17 17 17 18 19 19 18 18 20 22 24 24 24 25 26 26 24 24 23 21 22
2 2 2 3 4 4 2 1 3 9 10 8 8 8 6 5 5 7 6 4 3 1 1 1 1 0 2 2 3 10 15 17 17 16 14 14 15 15 16 16 16 15 13 11 11 12 13 14 14 15 15 16 16 16 16 16 18 18 17 17 17 16 16 15 16 16 17 17 18 18 19 19 20 21 24 26 26 26 26 27 26 25 25 23 22 22
2 2 3 3 2 1 1 2 1 7 9 7 7 8 7 6 5 4 2 4 5 5 4 2 3 2 2 2 2 7 13 15 15 15 15 13 12 14 16 16 13 12 12 11 10 12 14 14 13 14 15 16 15 15 15 16 17 16 16 16 16 17 16 16 16 17 17 18 18 19 19 20 21 23 25 25 26 27 27 26 25 25 24 23 23 23
2 1 3 5 5 5 4 3 3 6 7 6 5 6 8 8 6 3 2 3 5 6 7 6 5 2 2 0 5 9 13 15 14 14 15 14 13 14 15 13 10 10 11 11 10 11 14 14 13 14 15 15 15 15 15 16 16 16 16 16 16 17 17 16 16 16 17 18 19 19 20 20 21 23 24 25 26 26 26 26 24 24 23 23 23 22
2 2 3 5 7 7 7 6 4 4 4 3 3 7 10 10 10 5 3 4 5 4 7 6 3 1 0 4 11 13 15 15 14 15 15 14 15 15 13 13 11 9 11 12 11 11 13 13 13 14 15 15 15 15 16 16 15 16 16 16 16 16 16 16 16 16 17 17 18 19 19 20 21 22 23 24 24 25 26 25 24 23 23 22 22 22
1 1 2 2 4 4 3 2 1 3 6 6 5 8 9 9 10 8 4 5 4 4 5 4 3 5 7 10 15 16 15 15 15 16 15 14 16 16 14 14 13 10 11 12 11 11 12 12 14 15 15 15 15 16 16 16 16 16 16 16 15 15 16 16 15 16 16 16 17 18 19 20 21 22 22 23 23 24 25 25 24 23 22 22 22 23
2 2 2 2 2 1 1 2 1 3 7 9 8 10 10 9 10 10 7 4 6 5 4 4 6 8 10 14 17 17 16 16 17 18 16 15 16 16 15 15 14 11 11 11 11 13 13 12 14 15 15 15 16 16 16 16 16 16 16 15 14 15 16 15 15 16 16 16 17 18 19 20 20 21 22 22 23 23 24 24 24 23 23 23 24 23
2 4 3 3 3 2 2 0 2 2 3 4 7 10 11 11 12 13 10 7 9 7 5 7 11 10 10 17 21 18 17 18 19 18 17 16 17 17 17 18 17 14 13 13 13 13 13 13 15 16 16 16 17 17 17 16 16 16 16 15 14 15 16 16 16 16 16 17 17 17 19 20 21 21 21 22 23 23 23 23 22 22 22 22 22 21
2 3 3 4 3 2 3 2 3 4 2 2 5 7 8 11 14 14 9 6 7 4 1 9 15 9 5 14 20 16 12 12 13 14 15 17 19 18 19 19 18 16 15 14 13 13 13 14 16 17 17 18 18 18 18 17 17 17 15 15 15 15 16 17 18 18 17 17 17 17 18 19 20 19 20 22 22 22 22 22 21 21 21 21 20 21
2 2 3 4 4 1 3 3 1 4 5 5 4 3 5 8 9 7 4 4 4 2 2 8 11 5 1 9 15 13 10 10 13 14 16 18 20 20 21 20 18 16 15 15 14 13 13 15 17 17 18 18 19 20 20 19 19 18 16 16 16 16 17 19 20 19 18 17 16 16 17 17 17 18 20 21 21 21 21 20 21 20 20 20 20 21
2 1 2 3 4 2 1 2 1 3 4 4 4 3 4 6 4 1 2 3 5 7 8 8 6 4 5 12 15 13 12 14 17 18 17 18 20 21 21 20 17 16 16 15 15 14 14 15 17 18 18 19 20 23 25 24 22 19 17 17 16 17 19 21 22 20 18 17 16 16 16 15 16 18 19 20 20 20 20 20 20 20 19 21 22 21
3 4 2 3 4 3 1 1 1 3 4 3 3 4 5 3 2 1 1 3 5 9 10 6 4 5 11 17 18 17 17 18 19 19 18 19 21 21 19 18 17 16 16 16 16 16 16 16 18 19 20 21 23 25 27 27 24 21 20 20 20 20 21 23 24 22 19 16 15 15 15 15 16 17 18 19 20 20 19 19 19 20 20 21 23 23
5 5 3 2 3 4 1 1 1 4 4 1 1 2 4 3 4 5 2 2 4 4 2 0 4 11 17 20 21 22 23 20 18 17 16 17 19 18 16 17 17 16 16 17 16 16 17 18 18 20 20 22 24 26 26 27 26 25 24 23 22 22 22 23 23 23 20 17 15 15 15 15 15 16 17 18 18 18 18 18 19 20 21 22 24 24
6 5 2 1 1 2 1 1 3 5 2 1 3 2 3 3 4 3 2 4 6 4 1 2 7 15 20 19 18 20 21 18 15 13 14 15 15 15 15 16 17 17 17 16 15 17 19 20 20 20 21 23 26 27 26 26 27 26 24 23 21 20 20 20 20 20 18 16 14 14 13 13 14 15 16 17 17 17 18 19 19 20 21 21 22 23
6 5 3 2 1 2 2 4 4 2 1 2 3 0 3 4 4 3 4 6 9 8 5 5 8 12 15 14 13 14 14 13 10 8 12 15 15 16 16 16 17 18 18 18 19 20 21 23 26 27 26 26 28 27 26 27 27 26 23 21 20 19 18 18 18 17 16 15 14 13 13 14 15 16 16 16 16 16 16 18 19 20 20 20 21 22
5 5 4 2 0 1 3 4 2 1 1 2 1 3 5 5 5 4 3 4 8 9 7 7 10 13 15 14 14 12 12 12 9 7 12 16 15 16 18 19 20 21 21 24 25 25 27 30 33 32 31 30 29 28 27 28 28 26 23 21 21 20 18 17 16 16 15 15 15 15 15 15 16 17 16 15 15 15 16 17 18 19 20 20 20 21
3 2 3 4 2 1 2 3 2 3 4 2 2 3 4 3 3 4 1 2 6 9 9 10 14 16 16 17 16 14 13 11 10 10 14 17 17 16 16 18 21 24 24 25 25 25 28 33 33 32 32 32 31 30 29 29 28 26 23 23 22 20 18 17 16 16 16 17 17 17 17 16 16 17 16 14 15 15 15 15 16 17 19 19 19 20
5 2 1 3 3 2 3 4 4 4 2 1 2 3 3 2 3 4 2 3 6 12 13 13 16 18 19 20 19 17 14 11 10 11 14 18 17 15 15 16 21 24 24 26 29 29 30 33 33 32 33 33 32 31 30 30 29 26 23 23 21 19 17 17 17 17 18 19 19 18 18 17 17 17 15 15 15 14 14 14 15 16 18 19 19 19
5 2 1 3 3 3 4 3 2 2 1 1 3 4 4 4 4 4 3 2 5 13 15 15 17 19 20 20 19 18 15 9 7 9 15 17 16 17 19 20 22 22 22 24 31 35 35 34 33 31 31 32 32 32 32 31 29 26 25 24 21 18 18 19 19 20 20 20 19 18 17 17 16 16 15 14 14 13 13 13 14 15 16 17 17 17
3 2 1 3 3 4 5 3 2 2 1 1 3 6 6 4 3 4 3 2 4 11 14 14 17 19 21 21 18 14 8 2 3 10 17 17 16 18 22 25 26 26 26 29 34 36 34 33 34 33 32 33 34 34 33 32 29 27 27 25 21 19 20 21 22 22 21 20 19 17 16 15 14 14 13 12 12 11 11 12 12 13 14 15 16 17
2 2 1 2 3 3 3 2 2 2 0 3 5 5 4 4 3 3 1 2 4 11 12 13 16 17 19 20 14 6 5 7 10 16 18 17 17 18 21 23 23 23 26 31 35 36 32 30 32 33 33 34 36 35 34 32 29 27 28 25 21 21 23 22 22 21 20 19 18 16 15 14 12 12 11 10 10 9 9 10 10 11 12 14 15 16
2 3 3 4 3 1 1 3 3 2 3 9 10 6 3 3 1 1 1 2 3 9 10 10 11 13 15 14 8 7 11 13 15 18 19 18 18 18 18 20 21 21 26 29 32 36 35 30 29 32 34 35 36 36 35 32 30 29 28 24 23 24 24 22 21 20 19 18 17 16 14 13 11 10 9 9 8 8 7 7 8 9 10 12 13 13
2 2 2 3 3 3 4 4 2 0 2 6 5 3 2 1 1 1 2 2 3 7 8 7 8 11 12 11 9 10 13 15 17 19 19 19 19 17 17 20 22 24 27 27 29 34 35 30 27 31 35 36 36 36 35 33 32 31 27 24 25 26 24 22 21 20 18 17 16 15 14 12 10 9 8 7 6 6 5 5 5 6 8 10 11 10
1 0 1 2 2 2 2 1 1 2 1 2 1 2 2 2 1 1 3 3 5 7 7 7 9 10 10 10 11 11 12 15 17 18 19 19 18 18 19 22 24 25 26 26 29 34 34 31 30 32 33 35 36 36 35 34 34 32 27 25 26 26 24 23 22 21 19 17 16 15 13 12 10 8 7 5 4 3 2 2 3 3 5 7 8 9
1 0 1 1 1 1 1 1 1 2 2 1 1 1 2 3 1 1 2 3 5 6 7 8 10 11 11 12 12 11 11 15 17 17 17 18 18 18 21 23 24 26 26 25 27 32 33 33 33 32 31 32 35 35 34 34 35 33 29 28 28 26 24 24 23 22 20 18 16 15 13 11 10 8 6 5 4 3 2 1 1 2 3 4 5 7
1 2 1 1 0 2 1 0 1 2 2 2 1 1 1 2 2 1 2 2 4 7 8 8 10 12 12 13 13 13 14 17 17 15 15 16 16 17 20 22 23 25 26 27 30 33 33 31 30 29 30 30 32 34 34 34 33 33 31 29 29 27 25 24 23 22 21 19 17 15 13 11 10 8 7 6 5 3 1 1 2 2 3 3 4 6
1 2 1 0 1 2 2 2 2 4 4 3 2 1 0 1 1 1 1 1 4 7 8 9 11 12 12 11 13 15 16 17 17 16 15 14 14 15 19 22 24 25 25 27 31 34 32 28 27 28 30 31 31 33 34 32 32 32 31 30 30 28 26 25 23 21 21 19 18 16 14 12 10 9 8 7 5 4 2 0 2 2 3 3 4 5
1 1 1 1 1 2 3 3 2 3 4 4 4 3 2 1 1 2 2 3 6 8 9 10 10 11 12 13 14 16 17 17 17 17 16 14 13 15 19 23 24 25 26 28 32 34 32 30 30 29 30 32 34 33 32 31 31 30 30 30 29 29 27 26 24 21 20 19 18 16 14 12 11 9 8 7 5 4 3 1 1 2 3 4 4 4
2 2 2 2 2 1 2 2 1 1 2 2 4 5 5 5 4 5 6 7 9 10 11 12 10 9 12 15 16 17 17 16 17 18 16 14 16 18 22 24 24 24 26 28 31 33 33 34 35 32 31 34 35 33 32 31 30 29 28 27 27 27 28 27 25 22 20 19 18 17 15 13 12 10 9 7 5 3 2 2 0 1 2 3 4 5
2 2 3 2 1 0 1 2 1 1 2 2 1 4 5 5 6 7 8 8 9 11 12 14 13 12 12 14 17 20 19 17 19 20 16 15 19 22 24 25 26 25 25 26 27 27 29 34 36 33 32 35 35 33 32 31 30 29 28 26 24 25 27 27 26 24 21 20 19 17 16 15 13 11 9 7 5 4 2 2 1 1 2 3 4 5
Wind_Direction
163 168 187 192 181 168 162 173 149 103 133 142 158 162 166 166 108 81 52 350 326 77 69 95 100 95 102 111 141 175 151 120 123 138 142 137 127 127 140 133 127 129 120 107 105 109 111 111 117 121 120 122 126 130 127 120 121 126 125 123 122 122 117 110 108 103 98 97 96 94 91 90 88 87 86 86 88 84 77 73 69 66 66 68 65 59
184 191 189 167 149 152 154 146 122 107 111 123 157 156 167 164 98 90 37 6 62 101 98 103 90 90 108 116 137 161 137 116 123 137 125 101 78 67 143 127 110 109 94 86 84 87 95 94 98 109 112 105 102 110 116 118 125 129 126 124 123 123 117 110 108 103 99 96 94 96 100 102 98 91 88 90 92 89 83 76 71 69 69 71 69 64
191 196 162 140 146 146 143 150 147 135 114 108 142 148 167 168 117 111 53 37 86 104 120 109 90 93 96 100 117 110 108 99 99 116 107 89 69 42 45 69 49 50 73 77 75 80 91 90 90 100 105 104 102 104 111 118 122 122 121 120 120 121 115 109 107 105 105 102 99 102 108 111 107 102 100 98 95 91 86 78 72 68 65 65 65 63
184 184 153 148 148 143 144 169 167 161 149 127 136 157 159 140 162 122 67 66 79 105 132 114 95 98 88 87 83 73 101 96 95 110 104 99 100 91 77 67 36 11 38 58 69 86 97 89 85 95 105 109 106 101 107 114 115 114 114 117 120 119 113 109 109 109 110 108 108 109 110 109 105 103 103 99 93 87 84 78 72 68 64 62 62 60
145 141 145 148 154 152 154 171 173 183 203 181 179 184 133 112 81 95 105 96 84 102 130 117 99 97 91 106 98 98 119 105 108 120 115 113 111 110 116 111 101 45 28 37 54 88 101 89 86 95 105 107 102 95 103 111 112 112 112 114 116 114 109 106 108 110 111 109 110 111 110 106 99 92 87 85 81 78 78 75 74 76 74 69 67 63
127 130 145 150 161 157 154 171 182 185 193 205 211 196 140 129 116 119 139 127 92 119 149 131 110 120 117 124 125 140 138 116 122 129 127 129 121 122 136 129 120 115 111 102 70 90 99 93 90 89 95 100 95 91 101 110 114 114 113 113 113 110 108 108 111 115 116 114 112 111 108 97 85 76 70 73 78 79 79 76 76 78 76 71 70 67
128 149 158 155 156 155 157 176 188 184 185 201 194 157 132 126 127 138 155 145 105 130 149 276 108 135 156 148 143 154 147 130 128 132 134 136 132 135 143 135 127 127 118 111 94 90 91 90 88 83 89 97 98 100 105 110 112 114 113 113 111 109 109 110 114 117 117 114 113 111 106 96 88 87 82 81 85 83 80 79 75 73 70 65 63 60
136 154 168 157 154 161 169 176 183 186 183 180 154 142 138 137 140 149 141 103 113 111 109 329 22 123 171 172 157 156 147 140 139 140 140 141 140 142 146 140 132 134 127 116 108 100 92 89 90 90 91 97 105 106 106 108 109 111 112 111 110 108 108 109 112 113 109 107 107 105 102 97 91 92 91 86 86 83 79 75 68 63 59 53 52 49
137 162 169 156 157 172 175 156 159 177 182 155 151 145 140 142 140 145 126 99 121 149 140 185 170 134 167 169 160 164 158 154 157 156 153 150 149 149 153 146 131 129 127 121 121 115 99 92 97 103 100 101 106 105 107 109 108 108 109 109 108 106 105 106 108 107 105 105 103 99 98 96 91 88 87 84 81 76 69 64 57 52 48 44 44 43
165 174 167 159 167 174 161 141 158 176 182 125 137 124 98 92 93 108 131 109 125 205 175 182 194 152 160 178 171 173 177 176 171 164 161 159 156 156 155 145 133 131 130 122 117 109 100 99 103 106 102 102 106 107 108 109 108 108 105 104 102 100 100 99 97 96 95 95 95 93 93 92 92 90 85 77 68 63 58 53 47 42 41 39 37 37
110 144 156 168 175 158 145 150 168 174 141 125 130 114 97 85 73 73 70 98 167 226 183 182 191 175 174 191 186 187 189 181 174 164 163 162 157 157 153 145 141 138 135 125 113 106 104 104 105 105 103 103 107 110 111 111 109 105 102 100 97 94 93 90 87 86 85 83 83 84 87 87 87 84 78 69 60 55 51 49 46 43 41 38 34 33
98 130 158 190 163 135 132 146 173 161 141 144 138 128 129 111 106 125 85 144 210 209 168 181 185 196 205 195 198 203 193 179 177 167 164 163 157 153 146 142 142 137 133 125 116 119 116 109 107 107 106 106 108 109 110 110 108 104 102 100 96 91 87 84 83 82 81 81 80 81 82 81 80 77 72 67 60 53 50 47 46 44 42 38 35 33
113 144 168 166 167 157 146 147 156 157 169 172 154 155 168 158 162 185 171 190 209 176 36 169 174 203 224 190 201 201 192 187 185 172 164 161 154 150 143 137 135 132 130 123 123 132 120 114 116 113 111 110 109 109 110 110 108 105 102 99 95 89 86 84 83 83 82 81 80 79 79 78 77 74 71 67 62 57 54 49 46 45 43 40 37 35
137 178 182 154 164 173 167 167 169 172 186 186 168 174 187 174 172 188 174 159 173 136 39 101 162 211 206 92 265 198 190 184 180 173 165 158 152 149 144 139 135 131 130 127 131 133 118 117 124 123 118 114 111 111 112 112 109 106 102 97 94 91 88 86 85 84 83 82 80 78 78 77 76 74 71 69 67 64 59 54 52 50 46 44 40 37
163 173 176 164 153 175 180 181 155 141 170 187 159 172 189 182 182 187 176 171 150 124 74 120 171 207 171 117 340 216 173 165 165 164 157 152 149 148 145 142 138 136 136 136 136 130 123 126 127 122 120 118 115 112 111 111 110 107 103 97 95 94 92 90 87 86 83 82 80 77 77 77 77 77 74 72 70 67 64 60 58 55 51 50 47 43
158 112 170 170 139 172 177 171 120 140 167 194 113 161 193 181 150 124 144 130 122 125 126 157 183 304 31 359 315 166 154 153 152 149 149 150 149 150 149 146 144 143 146 146 140 132 128 128 123 119 120 121 117 113 113 113 111 108 105 101 99 98 96 93 90 88 85 83 81 78 79 79 80 80 77 75 72 68 67 65 63 61 58 56 53 50
152 116 162 171 168 186 173 156 167 177 164 149 183 193 174 107 109 116 94 48 99 172 162 147 138 124 192 176 148 151 149 147 146 147 152 153 154 158 156 152 150 149 152 151 145 138 133 127 122 124 129 125 120 117 117 116 114 112 108 105 103 99 97 94 92 90 88 86 83 80 80 80 79 79 77 76 74 71 71 69 67 64 60 57 56 53
166 126 141 182 181 195 172 162 186 211 149 149 190 176 112 69 75 127 150 119 186 197 160 139 165 169 183 173 151 149 146 148 151 153 155 156 160 163 160 156 153 151 152 148 143 137 129 126 125 129 131 125 121 122 121 120 119 115 112 108 105 101 98 95 93 93 92 90 86 82 81 80 79 79 77 76 75 74 72 69 67 64 61 59 58 56
198 139 144 204 186 162 151 176 185 209 254 159 170 153 135 196 196 165 168 168 180 189 152 146 173 190 206 175 157 155 157 163 162 161 162 164 166 164 158 158 154 152 152 147 145 137 126 127 129 129 127 122 123 124 122 121 119 115 112 108 103 100 98 97 95 95 94 93 91 86 83 81 80 79 78 77 76 74 72 70 68 67 65 62 60 57
220 158 158 210 190 147 158 195 190 182 177 64 149 166 185 269 190 168 163 171 180 184 167 144 165 214 227 183 170 169 171 172 169 170 171 169 168 164 159 159 155 154 156 151 146 134 126 128 130 131 129 126 125 123 120 119 116 113 110 105 103 101 100 98 96 96 95 93 94 91 87 83 81 81 79 77 77 75 73 72 72 70 67 64 60 57
139 195 172 142 127 170 178 203 195 173 160 160 174 183 178 114 128 173 143 85 174 179 169 157 180 218 213 183 184 182 178 176 174 172 170 167 166 162 158 157 155 157 157 149 138 130 128 131 132 133 131 126 122 117 115 115 114 114 111 107 105 103 100 98 96 97 96 95 95 93 89 86 84 82 81 80 79 78 76 75 74 71 68 65 61 57
162 175 176 147 171 194 176 175 191 179 174 177 181 183 180 167 160 185 188 145 104 152 163 171 204 202 147 181 203 192 182 177 172 166 162 163 163 159 157 157 156 157 153 141 132 131 130 132 134 133 129 122 115 110 108 111 114 114 112 109 106 101 98 97 97 97 96 95 94 91 90 88 85 84 84 83 81 79 77 75 73 70 67 63 60 57
144 137 156 157 182 196 172 35 216 192 180 180 191 186 176 172 181 200 202 155 136 137 119 141 273 165 93 5 257 201 183 174 167 160 155 157 158 154 154 157 155 151 143 133 132 133 130 132 133 131 125 116 109 109 110 114 117 116 111 109 104 100 99 99 98 96 94 92 91 91 90 88 86 86 85 83 81 79 77 74 71 69 66 63 60 59
148 153 162 143 129 197 237 360 247 191 179 189 204 187 174 182 189 204 184 146 174 181 152 180 233 197 70 360 239 179 167 165 163 157 149 146 150 151 151 153 148 137 129 128 131 129 128 130 131 129 123 115 112 116 117 118 120 117 113 109 105 104 104 102 98 94 91 90 90 90 89 88 87 86 84 81 80 79 77 74 71 68 65 63 61 58
175 197 172 158 150 164 185 175 175 188 190 200 198 184 190 182 155 126 101 163 205 190 170 196 218 187 29 333 178 158 152 157 157 154 151 145 146 151 151 148 140 129 127 133 137 132 131 134 136 131 124 121 123 125 123 122 122 119 115 113 111 110 108 104 98 93 91 90 90 90 89 88 87 85 83 82 80 78 76 73 70 67 64 62 59 56
166 178 169 174 170 171 183 190 185 174 176 207 195 188 197 183 164 157 146 188 217 181 176 207 207 143 265 183 170 164 159 158 156 155 155 151 151 153 151 147 143 137 139 145 146 139 136 139 137 130 127 130 132 131 128 126 123 120 118 117 116 115 111 106 100 94 92 91 90 91 90 89 87 85 84 83 80 78 75 71 69 66 63 60 57 55
113 164 153 176 179 172 169 170 147 156 172 190 189 187 197 189 175 177 181 196 187 145 179 218 135 147 187 183 172 170 166 159 157 159 159 156 155 154 153 153 150 145 147 151 148 140 138 139 134 130 132 134 134 132 130 128 127 124 122 121 119 118 117 112 105 98 93 93 93 92 91 89 88 87 86 83 81 78 73 70 68 66 63 60 58 55
122 189 175 165 170 132 107 116 111 187 193 193 184 183 194 191 182 192 205 174 138 152 202 192 150 165 188 188 180 174 168 164 165 168 164 159 159 155 153 156 153 148 147 149 148 144 141 138 134 134 136 134 131 129 127 127 126 124 122 121 120 121 122 118 112 104 97 96 96 94 93 93 91 90 87 85 82 77 72 69 68 66 64 61 57 53
156 193 186 182 168 107 60 35 192 197 203 200 198 197 193 187 188 200 204 168 162 198 216 168 176 190 188 188 188 180 173 170 168 167 160 157 161 157 155 158 158 154 152 153 152 147 143 140 139 140 139 134 131 130 128 127 126 124 122 119 117 120 123 122 117 109 102 100 99 98 98 97 95 91 88 85 80 75 72 69 67 66 62 59 55 50
196 183 164 183 185 110 33 341 216 196 182 202 219 217 201 194 197 200 196 169 172 209 173 162 183 201 190 188 189 179 163 154 152 156 156 159 164 160 159 162 161 158 157 156 152 146 141 141 141 141 139 137 136 135 132 130 129 127 122 119 119 120 123 125 120 113 108 105 103 103 102 99 96 91 87 84 78 74 71 68 67 65 60 56 53 49
222 187 147 165 188 213 20 17 229 203 199 208 219 226 213 205 206 199 167 139 142 114 100 161 178 201 214 176 173 162 146 143 152 160 163 166 167 164 165 165 161 158 159 155 150 144 140 141 143 144 142 140 141 140 137 134 133 131 126 122 121 122 125 128 123 117 115 112 110 109 105 100 96 90 85 82 78 74 71 67 65 62 59 55 52 48
183 161 112 157 188 213 34 30 280 178 181 224 235 212 193 192 199 181 135 177 174 140 130 147 176 205 179 162 158 154 154 159 166 169 169 171 170 168 167 165 161 159 158 153 149 146 146 148 148 147 145 144 145 145 143 140 138 135 131 126 124 125 127 128 124 120 117 116 115 112 107 102 95 88 84 82 78 74 70 67 64 61 58 56 53 49
160 145 138 174 193 205 175 2 268 175 175 234 243 186 168 159 175 178 162 233 196 148 141 162 193 168 157 158 159 163 169 173 175 176 175 173 173 170 165 162 160 159 156 153 153 152 153 154 151 149 149 149 150 150 149 147 144 140 136 132 129 129 130 129 127 124 122 121 119 114 108 102 94 88 86 84 80 75 71 67 65 64 61 59 55 51
157 147 150 190 193 195 199 12 277 214 208 222 39 171 171 147 163 183 195 235 206 168 144 168 125 137 154 166 168 171 179 181 177 175 171 169 170 167 162 160 159 157 156 155 155 154 151 151 150 149 148 150 152 153 152 152 150 145 141 137 133 131 131 131 129 128 128 127 122 115 108 101 94 90 90 89 83 77 73 70 69 67 65 61 56 52
156 151 140 145 168 167 134 146 201 218 218 56 27 257 209 157 149 175 254 250 224 218 224 154 151 156 166 174 174 175 178 171 159 156 158 161 164 160 160 163 160 157 158 156 153 153 151 149 147 147 148 152 155 154 152 152 150 145 142 140 137 136 136 134 132 131 132 129 123 117 109 103 99 97 96 94 88 81 78 75 73 71 67 62 57 52
155 152 126 89 115 139 154 190 206 229 14 31 19 114 169 157 153 176 236 224 207 209 204 179 171 169 168 168 169 167 160 146 132 137 155 164 168 164 162 165 163 162 160 156 153 153 154 153 152 153 155 156 155 153 151 151 149 146 143 144 145 145 143 139 135 134 134 130 123 117 113 109 107 104 103 99 93 86 82 79 76 73 68 63 58 53
154 153 136 127 197 177 174 189 210 323 269 247 247 176 181 185 169 175 236 219 182 187 193 170 163 167 163 159 156 145 131 129 139 164 172 173 174 170 167 167 167 164 160 157 154 155 158 158 157 158 159 157 155 154 153 152 151 150 148 148 148 147 143 139 136 136 133 128 123 121 119 116 112 110 108 103 96 91 86 82 77 72 67 62 57 52
127 159 163 169 193 202 176 182 196 225 229 217 186 181 202 217 158 143 232 246 174 174 179 168 164 164 159 152 145 134 128 142 166 184 184 180 177 171 166 162 160 158 154 150 149 151 156 158 157 159 159 157 156 157 156 154 154 153 150 148 147 145 141 138 137 135 133 130 128 127 124 120 117 115 112 106 101 95 89 83 77 71 66 62 57 52
94 68 92 151 162 168 187 191 194 207 222 224 188 173 175 183 138 129 225 251 178 171 172 168 166 167 165 156 146 143 150 169 192 193 180 174 170 162 155 151 152 154 152 150 152 154 157 157 157 158 158 157 157 158 158 156 156 153 148 148 147 144 141 140 139 138 137 135 133 130 126 123 121 118 114 109 104 98 91 84 77 70 65 61 57 52
98 80 124 173 164 167 187 194 218 225 216 213 196 162 153 160 138 152 222 267 161 169 172 169 168 170 167 158 153 162 171 186 205 179 159 157 154 150 151 151 150 148 145 149 156 158 157 157 156 156 157 158 158 160 160 158 156 153 151 151 149 146 145 144 143 143 143 140 137 133 128 126 124 121 117 113 106 99 91 83 76 69 63 58 55 50
96 91 164 190 174 180 192 195 245 247 207 188 176 152 158 178 169 178 207 16 139 172 174 170 168 167 166 164 167 179 181 145 99 127 134 141 144 147 153 152 149 149 149 153 157 156 155 156 157 158 160 162 161 162 162 160 157 155 155 155 154 151 149 148 148 148 147 146 143 139 135 132 129 125 121 115 108 99 90 82 74 67 62 56 52 49
134 123 123 171 164 176 203 203 236 263 160 142 141 137 170 205 194 180 162 33 172 178 173 172 170 167 169 170 170 161 117 102 114 125 132 141 146 149 153 148 142 143 145 151 156 156 153 155 158 159 162 164 164 163 163 161 159 159 161 161 160 158 154 152 153 154 153 151 149 147 144 140 135 130 124 118 110 99 87 80 71 64 59 54 49 46
182 170 165 169 156 126 188 193 205 247 175 155 143 135 195 221 175 126 63 39 181 175 169 172 170 167 170 167 144 112 117 125 132 135 139 146 147 145 144 140 136 137 140 147 155 159 157 155 157 160 163 165 166 165 165 164 163 164 166 167 167 165 161 158 158 159 159 159 158 156 153 148 141 135 127 119 111 101 90 80 68 58 53 49 45 41
223 198 179 187 185 180 188 190 191 322 192 174 150 130 197 195 74 128 136 115 159 168 166 166 163 165 167 152 126 124 133 137 141 143 144 147 147 141 138 139 141 143 146 150 155 159 158 155 156 160 164 166 167 167 168 168 166 168 170 171 171 171 169 166 165 164 165 167 166 165 162 157 151 144 135 124 115 107 96 79 65 52 43 40 37 32
201 154 217 222 211 202 207 217 320 341 256 226 3 9 344 2 30 164 159 145 161 170 167 162 158 158 152 135 129 135 141 143 147 149 149 148 146 143 143 145 147 147 148 150 155 159 159 156 157 161 164 167 169 170 171 172 170 171 173 173 173 174 173 172 172 171 172 174 174 172 169 165 162 156 149 142 131 127 121 83 59 43 33 30 27 25
38 153 205 241 273 257 260 291 326 319 304 301 3 344 325 338 359 184 177 163 166 169 167 162 156 149 142 138 139 142 145 147 149 151 151 147 144 145 146 146 147 148 147 147 153 159 159 158 159 162 164 168 171 173 174 176 174 173 174 173 174 176 176 176 177 179 180 181 181 180 177 175 174 171 169 169 162 155 149 82 42 17 12 16 17 19
176 184 181 18 304 206 191 86 348 315 311 329 338 312 307 336 341 286 229 183 163 165 167 158 146 141 142 144 144 143 147 150 150 150 151 147 145 147 146 145 145 148 149 152 157 160 159 158 159 162 165 169 173 175 176 178 178 176 175 175 177 179 180 180 181 184 186 187 188 190 189 189 189 188 190 192 188 180 171 77 27 1 358 5 8 13
175 194 203 174 187 229 267 294 302 289 271 262 271 268 206 359 354 340 291 158 143 148 151 145 141 143 146 146 144 144 149 153 152 151 152 149 147 147 145 144 146 148 150 154 158 160 160 158 160 164 167 171 176 178 178 180 180 178 177 179 181 183 183 184 185 185 188 190 192 195 196 197 197 197 200 202 198 194 197 173 18 1 352 356 359 2
149 205 187 155 166 271 278 265 269 274 245 204 195 200 189 185 161 130 130 141 140 135 134 139 147 152 150 148 146 146 150 155 155 153 151 150 149 148 146 146 148 150 151 155 160 163 162 162 164 166 168 173 178 181 181 182 182 180 180 183 186 186 187 188 188 187 188 190 193 195 196 198 199 199 202 205 201 198 204 204 18 5 353 354 360 1
191 175 148 169 195 235 267 251 216 256 255 187 178 180 172 169 166 154 152 156 154 149 145 143 145 148 150 151 152 149 150 156 157 153 151 151 151 150 148 147 149 151 152 156 161 164 164 167 168 169 170 175 180 183 185 186 185 183 185 188 190 190 191 192 191 191 191 192 193 195 196 196 197 198 200 201 196 195 205 210 207 21 10 6 10 12
208 174 165 190 187 110 294 271 187 212 322 346 137 159 157 160 165 163 162 164 161 158 153 148 146 149 154 157 158 154 152 156 158 154 151 153 153 151 150 149 150 152 153 155 157 159 162 167 170 171 172 176 180 183 186 188 187 185 188 192 191 188 189 191 192 193 194 195 196 197 197 195 195 197 198 194 184 177 176 183 174 63 37 25 20 19
Height
765 770 772 767 767 769 771 769 770 773 773 773 774 775 779 777 781 788 787 786 783 789 801 800 802 811 810 806 802 798 798 801 807 809 810 812 812 814 816 817 817 817 818 819 821 822 822 823 824 825 826 827 829 829 829 830 831 833 834 835 837 838 839 839 840 840 841 841 841 842 843 844 845 846 846 846 846 846 846 846 846 846 845 845 845 845
765 768 767 764 766 768 772 772 771 775 776 775 774 776 780 779 784 792 790 787 782 790 805 802 805 813 811 807 804 800 801 806 808 809 812 815 817 820 820 819 820 820 820 820 822 823 823 825 825 826 828 829 830 830 830 832 833 834 835 836 837 838 840 840 840 841 841 842 842 843 844 845 846 846 846 847 847 847 847 847 847 846 846 846 846 846
769 768 766 766 768 769 774 773 769 773 776 777 778 777 779 781 785 790 791 788 781 790 805 803 807 817 813 809 806 803 804 809 811 810 813 817 819 825 827 825 825 824 823 824 825 825 826 827 827 828 830 830 831 832 832 834 834 835 836 837 838 839 840 841 841 841 842 842 843 844 845 845 846 847 847 847 848 848 847 847 847 847 847 847 847 847
770 767 765 768 768 769 775 775 770 773 776 778 779 777 780 784 784 786 793 792 784 789 800 802 810 817 815 813 811 808 807 811 814 813 814 815 816 824 829 830 831 831 830 830 829 829 829 829 830 831 832 833 833 834 834 835 835 836 837 838 839 840 841 841 842 842 842 843 843 844 845 846 846 847 848 847 848 848 848 848 848 848 848 848 848 847
764 762 765 770 767 766 774 777 773 774 778 781 781 778 779 783 785 787 793 791 788 792 793 796 811 819 817 817 817 812 811 814 816 815 816 817 817 822 829 829 831 834 835 835 833 832 831 831 833 834 833 834 834 835 836 836 837 838 839 839 840 841 841 842 842 843 843 843 844 845 846 846 847 847 848 847 848 848 848 849 849 848 848 848 848 847
762 763 765 768 767 766 771 776 774 772 776 781 781 778 776 780 786 792 793 790 795 803 796 794 812 826 821 818 820 816 814 817 817 816 819 821 820 822 829 828 827 832 835 836 836 834 833 833 835 835 834 834 835 837 837 837 838 839 840 841 841 842 842 842 843 844 844 844 844 845 846 847 847 847 848 848 848 849 849 849 849 849 848 848 848 847
763 766 763 764 766 768 771 774 773 771 776 781 779 777 778 779 784 791 789 787 795 802 798 793 805 825 826 819 819 817 817 820 818 818 820 821 822 823 826 826 825 829 832 834 835 835 834 833 835 837 836 836 837 839 839 839 839 840 841 842 842 842 843 843 844 844 845 844 844 845 845 847 847 848 848 849 849 849 849 850 849 849 848 848 848 847
762 767 765 763 765 768 769 771 773 772 774 780 778 776 778 778 783 789 785 786 795 798 800 796 795 815 826 819 817 816 818 822 820 820 821 821 823 823 824 825 824 828 831 833 835 836 836 835 837 839 839 839 839 840 840 840 841 841 842 842 842 843 843 844 845 845 844 844 845 845 845 846 847 848 849 849 849 849 849 849 849 848 848 847 847 847
759 764 765 763 765 767 766 766 771 771 770 775 777 775 775 776 781 784 782 788 797 796 804 804 794 809 824 817 815 818 819 822 822 821 822 822 823 824 825 825 825 828 832 833 835 836 836 836 838 840 840 841 841 841 841 842 842 842 842 842 842 843 844 845 845 845 845 845 845 845 845 846 847 849 849 849 849 849 849 848 848 847 847 847 847 847
758 758 758 759 762 764 764 765 768 768 768 773 776 775 776 779 783 784 784 789 796 798 805 806 795 807 824 820 816 820 818 818 819 818 820 821 822 823 825 825 825 828 832 833 834 835 836 837 839 841 841 841 842 842 842 843 843 843 843 843 843 844 845 846 846 845 845 846 846 846 846 846 847 849 849 849 848 848 848 847 847 847 846 847 847 847
756 755 755 756 757 758 761 766 766 764 767 771 774 775 780 784 785 787 788 789 797 803 801 798 794 803 820 820 814 813 809 806 810 816 819 820 821 823 825 825 825 828 831 832 834 836 837 839 841 841 842 843 843 844 843 843 844 844 844 844 844 846 846 846 846 846 846 846 847 847 847 847 848 848 848 848 848 847 847 847 847 847 847 847 848 848
757 759 759 755 754 756 761 767 767 765 766 768 770 774 783 789 789 792 795 795 802 805 798 795 796 799 809 812 805 800 798 797 802 810 816 818 821 823 824 826 827 828 830 830 833 837 838 839 842 843 843 844 844 845 844 844 845 845 845 845 845 846 847 846 847 847 847 847 848 848 847 848 848 848 848 847 847 847 847 847 848 848 848 849 849 849
759 759 759 756 754 753 758 767 772 771 768 766 768 774 784 794 798 800 801 801 802 803 802 801 801 801 800 797 794 792 793 796 797 802 810 814 818 822 824 827 828 829 830 830 832 836 837 839 842 843 844 845 845 846 846 845 846 846 847 846 845 846 848 848 848 848 848 849 849 849 848 849 849 848 848 848 848 848 848 849 849 849 850 850 850 850
762 762 758 758 758 752 752 761 770 773 770 766 767 771 780 792 803 809 808 808 806 803 806 806 804 805 799 794 797 794 789 792 795 800 807 812 816 819 823 826 828 829 829 831 833 835 836 839 842 843 844 845 846 846 846 846 847 847 848 847 845 847 849 849 850 850 850 850 850 850 850 850 849 849 848 848 849 849 849 850 850 850 851 851 852 852
763 766 758 755 757 751 750 753 757 763 767 766 763 765 773 779 789 799 798 800 804 804 809 810 806 804 799 801 805 798 790 791 795 803 808 812 816 818 821 823 826 828 829 831 833 835 836 839 841 842 843 845 846 847 847 847 847 847 848 848 847 848 850 850 851 851 851 851 851 851 850 850 850 849 849 850 850 851 851 851 852 852 853 853 854 854
759 762 754 750 752 749 751 753 751 758 767 769 766 767 772 768 773 792 797 796 799 801 807 811 810 808 802 803 804 797 794 795 799 806 810 813 817 818 820 822 824 827 829 831 832 835 837 839 841 842 843 845 846 846 847 848 848 848 848 849 849 850 851 852 852 852 852 852 852 852 852 851 851 851 851 852 852 852 852 853 853 854 854 855 855 856
758 760 754 752 753 747 748 752 750 753 762 769 770 769 768 762 768 790 803 806 801 795 802 810 812 813 807 804 804 800 799 802 805 809 811 814 817 818 819 821 823 826 829 831 832 834 837 838 840 842 844 845 845 846 847 848 849 849 849 850 851 852 853 853 853 853 853 853 853 853 853 853 853 853 854 854 854 854 854 854 855 855 856 857 857 857
754 758 756 753 753 749 746 748 749 748 752 764 768 762 763 767 769 777 790 804 801 793 804 813 810 809 807 804 805 804 805 807 808 810 813 815 817 818 820 821 823 826 828 830 832 834 836 837 840 843 844 845 845 846 847 848 850 851 851 852 852 853 854 854 854 854 854 855 855 855 855 855 855 855 856 856 855 855 855 856 856 857 858 858 858 858
749 755 758 750 748 750 748 749 754 753 750 754 756 752 759 770 776 779 786 796 798 797 806 812 810 805 799 799 803 803 805 806 807 809 811 813 815 817 820 822 824 826 828 830 833 833 835 837 840 843 844 845 846 847 848 849 851 851 852 853 853 854 855 856 856 856 856 856 856 857 857 857 857 857 857 857 856 856 857 857 858 858 859 859 859 859
747 753 758 752 748 750 751 752 755 757 755 753 752 752 757 763 768 774 779 780 786 796 802 810 819 809 791 790 795 795 797 799 801 804 806 809 812 814 818 821 824 826 828 830 832 832 834 837 841 843 845 846 846 847 848 850 851 852 853 853 854 855 856 857 857 857 857 858 858 858 858 858 859 859 858 858 857 857 858 859 859 860 860 860 860 860
748 752 755 754 754 754 752 751 747 750 755 755 757 759 761 765 765 768 776 776 778 789 797 804 811 799 782 780 782 781 786 789 792 798 803 807 810 812 817 820 822 825 828 829 830 831 834 838 842 844 845 846 846 847 848 850 851 852 854 855 855 857 858 858 859 859 859 859 859 859 859 860 860 860 859 859 859 859 859 860 860 861 862 862 862 861
747 751 753 756 758 754 749 745 741 742 746 747 753 756 757 762 766 770 781 784 778 782 789 792 789 781 778 781 777 774 779 786 790 796 802 807 809 813 817 818 820 823 825 827 829 832 835 838 841 843 844 845 845 847 849 851 853 854 855 857 857 859 859 860 860 860 861 861 861 861 861 861 861 861 861 860 860 861 861 861 862 862 863 863 863 863
743 746 751 755 755 751 747 746 743 741 740 743 746 748 751 756 759 764 775 781 782 785 787 786 782 776 781 788 782 775 778 785 791 796 802 807 809 813 816 818 820 822 823 827 829 832 835 838 840 842 843 844 845 848 851 853 855 856 858 859 859 860 861 861 862 862 862 862 862 862 862 862 863 862 862 862 862 862 862 863 863 864 864 864 864 864
742 744 749 752 752 749 746 746 746 742 743 748 746 744 750 752 751 755 763 769 776 782 783 786 783 776 781 788 783 777 779 784 791 797 803 808 811 813 815 818 820 822 824 828 830 832 834 837 840 841 842 844 847 851 854 855 857 858 859 860 860 861 862 863 863 863 863 863 863 863 863 864 864 864 863 864 864 864 864 865 865 865 866 866 865 865
741 746 748 752 756 759 756 753 752 748 747 748 747 746 747 748 752 759 764 766 768 770 771 773 776 778 783 786 781 779 783 788 794 799 802 807 811 814 816 818 821 823 825 829 831 832 834 837 841 841 843 846 850 853 855 856 858 859 860 861 861 862 863 863 864 864 864 865 864 865 865 865 866 866 865 866 866 867 866 866 867 867 867 867 867 866
739 747 746 749 756 762 761 756 753 752 751 748 748 748 746 747 753 757 763 768 769 771 768 763 770 785 791 786 781 782 786 791 797 800 802 806 809 813 816 818 821 823 825 830 832 832 835 838 841 842 844 848 851 854 855 856 858 859 860 861 862 863 863 864 865 865 866 866 866 867 867 867 868 868 868 869 869 869 868 868 868 868 868 868 868 867
740 746 744 743 745 748 749 749 749 749 749 749 749 748 747 749 750 751 759 763 765 772 772 764 771 786 792 787 782 784 788 793 798 800 802 806 807 810 815 817 820 823 825 829 831 832 835 838 840 843 846 850 852 853 855 856 858 859 860 862 862 863 864 864 866 867 867 868 868 869 869 869 870 870 870 871 871 870 870 869 869 869 870 869 869 868
739 744 745 742 743 747 747 750 753 749 744 744 745 745 747 749 750 752 756 756 758 766 769 771 777 778 781 785 782 782 787 790 794 797 799 804 806 809 814 817 821 824 826 829 831 832 835 837 840 844 847 850 851 853 855 856 858 859 860 862 863 864 864 866 867 868 869 869 870 870 871 872 872 872 872 872 872 872 871 871 871 871 871 871 870 869
735 742 746 744 746 754 756 756 756 750 746 746 744 742 743 747 749 750 751 751 752 752 754 767 776 766 766 777 777 775 780 782 787 793 796 802 806 808 813 817 820 823 826 829 830 831 834 836 840 845 847 849 851 852 855 856 858 860 861 862 863 864 865 867 868 869 870 871 872 872 873 874 874 874 874 874 873 873 873 873 873 873 873 872 872 871
733 739 745 743 743 751 757 759 756 750 748 748 745 744 743 744 745 744 747 752 751 749 750 760 768 762 760 767 770 773 779 782 789 795 797 801 805 807 811 815 818 821 824 827 829 830 833 836 840 844 846 848 850 852 854 856 858 860 861 863 864 865 866 867 869 870 872 873 874 874 875 876 875 876 875 875 875 874 874 874 874 874 874 874 873 872
734 741 747 742 743 750 754 757 757 752 748 745 746 750 748 746 746 744 751 759 757 758 763 764 766 767 764 764 769 775 780 784 791 795 796 799 802 805 809 812 815 819 821 824 827 830 833 837 841 843 845 847 850 852 854 856 858 860 862 863 865 865 867 868 869 871 872 874 875 876 877 877 877 877 876 876 876 876 876 876 876 876 876 875 874 873
734 744 749 743 745 751 752 756 757 753 751 748 747 753 752 750 752 752 757 761 754 757 771 773 767 765 763 765 771 776 780 784 789 792 794 797 799 802 806 809 813 816 819 822 826 829 834 837 839 842 845 847 850 851 853 855 857 860 862 864 865 866 867 868 869 871 873 875 876 877 878 878 878 878 877 877 877 877 877 878 877 877 877 876 875 874
733 739 746 744 745 749 752 757 756 751 750 747 746 752 754 754 758 757 759 760 752 753 764 762 751 751 757 764 772 777 781 783 784 786 788 791 795 798 802 806 810 813 816 820 824 828 832 835 838 841 844 847 849 851 852 854 857 860 862 864 866 867 868 869 870 871 874 877 878 878 879 879 879 879 879 879 879 879 879 879 879 879 878 878 877 876
732 732 742 745 743 748 753 756 756 753 749 748 754 761 759 756 756 753 754 759 756 753 757 753 746 749 757 761 765 769 771 772 775 779 783 787 791 796 800 804 807 811 815 819 823 827 831 834 838 841 844 847 849 851 853 855 857 860 862 864 866 868 869 871 871 872 875 877 878 879 879 879 880 880 880 880 880 881 881 881 880 880 880 879 878 877
731 733 745 749 745 749 755 754 755 754 748 751 763 768 763 761 761 756 757 763 762 760 760 757 753 751 752 754 757 759 762 767 774 779 783 787 789 793 799 802 805 810 814 818 823 827 830 833 837 841 844 847 849 852 853 855 858 860 863 865 867 869 870 871 872 873 876 877 878 879 880 880 880 881 881 882 882 882 882 882 882 881 881 880 879 879
729 733 743 752 753 752 752 752 752 751 751 757 766 769 766 765 764 757 752 754 759 761 759 756 754 753 752 757 761 763 766 771 777 782 784 787 789 791 795 800 803 807 811 815 821 825 829 832 836 839 843 846 849 852 853 856 858 861 863 865 867 869 871 872 873 874 876 877 878 879 880 881 881 882 882 883 883 883 883 883 883 883 882 882 881 880
726 730 735 747 758 755 748 748 747 747 749 750 751 756 757 753 750 745 738 739 750 758 757 754 756 755 755 760 765 767 771 776 783 787 785 786 788 789 791 796 800 805 810 814 819 823 828 831 835 838 842 846 849 851 853 856 858 860 863 866 868 869 871 872 873 875 876 878 879 880 881 882 882 883 883 884 884 884 885 884 884 884 883 883 883 882
726 729 728 736 754 757 748 745 747 748 744 737 736 744 746 743 740 738 735 735 744 752 752 751 754 755 756 761 766 770 776 782 786 785 781 782 786 788 791 795 799 804 810 814 819 824 828 832 835 839 842 845 848 851 853 855 858 861 864 866 868 870 871 872 874 875 877 878 880 881 882 882 883 883 884 885 885 885 885 885 885 885 885 884 884 883
729 733 731 734 749 755 745 740 746 747 739 732 734 742 746 744 740 739 739 735 736 744 748 746 750 753 754 757 762 767 775 779 777 772 772 777 782 785 790 796 801 806 810 814 819 823 827 831 835 839 843 845 848 851 853 856 858 861 864 866 868 870 871 873 874 876 877 879 880 881 882 883 884 884 885 885 886 886 886 886 886 886 886 885 885 885
731 733 735 737 744 747 741 739 744 741 734 734 739 743 746 743 738 742 743 733 729 738 742 740 744 749 750 755 760 762 764 764 761 759 764 773 779 785 790 795 800 806 811 815 819 822 826 831 835 838 842 845 847 850 853 856 859 861 864 866 868 870 872 873 875 876 878 879 881 882 883 883 884 885 885 886 886 886 887 887 887 887 887 887 886 886
737 739 741 739 739 742 740 739 741 736 732 737 741 741 743 742 739 742 739 731 732 738 738 737 741 744 747 751 754 754 754 756 756 758 765 774 780 785 791 795 799 805 810 814 819 822 826 831 834 838 842 844 847 850 853 856 859 862 864 866 868 870 872 873 875 877 878 880 881 882 883 884 885 885 886 886 887 887 887 887 888 888 888 887 887 886
738 742 747 743 742 745 742 738 739 735 733 739 743 742 743 741 737 735 735 737 740 739 736 738 740 741 743 746 748 751 756 758 760 763 770 777 782 786 791 795 800 805 809 813 818 822 826 830 834 838 841 844 847 850 853 856 859 862 864 867 869 871 872 874 876 877 879 880 882 883 884 885 885 886 886 887 887 887 888 888 888 888 888 888 887 886
733 733 738 741 745 750 748 744 741 735 732 735 737 737 740 736 730 730 736 741 741 738 738 740 740 741 745 748 752 757 759 761 763 767 773 780 783 788 792 796 801 806 809 814 818 821 825 829 834 837 841 844 847 849 853 856 858 861 864 866 868 871 872 874 876 877 879 880 882 883 884 885 886 886 887 887 887 888 888 889 889 889 889 888 888 887
732 729 731 735 738 740 739 737 735 734 733 733 729 728 732 732 731 733 736 739 740 739 739 741 742 744 746 750 756 760 760 763 766 769 774 780 784 789 794 797 802 806 809 813 817 821 824 828 833 837 840 844 847 849 852 855 858 861 864 866 868 870 872 874 876 877 879 880 882 883 884 885 886 886 887 887 888 888 889 889 889 889 889 889 888 887
732 733 734 733 732 732 731 729 733 738 740 738 735 734 734 734 737 738 735 736 739 739 738 740 742 746 748 753 758 761 762 765 768 770 774 778 783 789 793 797 801 804 808 813 817 820 824 828 832 837 840 843 847 849 852 855 858 860 863 865 868 870 872 874 876 877 879 880 882 883 884 885 886 886 887 888 888 889 889 889 889 890 889 889 888 887
738 740 737 733 733 735 734 735 739 740 738 737 739 740 739 738 739 739 737 736 737 736 737 739 741 745 749 754 758 761 764 766 769 773 776 778 783 789 792 797 801 804 808 813 817 821 824 828 832 837 840 843 846 849 852 855 857 860 863 865 867 869 871 873 875 877 879 880 881 883 884 885 886 886 887 888 888 889 889 889 889 890 889 889 888 887
739 740 737 735 733 731 729 735 741 739 738 739 739 738 739 739 739 739 738 736 736 737 738 739 742 747 751 753 756 760 764 767 770 775 778 780 784 788 791 796 801 804 808 812 816 820 824 827 831 836 839 843 846 848 851 855 857 859 862 864 867 869 871 873 875 876 878 879 881 882 883 884 885 886 887 887 888 889 889 889 889 889 889 889 888 888
736 736 736 738 737 731 729 735 740 739 739 741 739 737 738 739 739 739 739 737 737 738 739 741 744 748 750 752 755 759 763 767 770 774 778 782 785 788 792 796 800 804 809 812 816 819 823 826 831 834 838 842 845 848 851 854 857 859 861 863 866 868 870 872 874 876 877 879 880 882 883 884 885 886 887 887 888 888 889 889 889 889 889 888 888 887
736 735 735 737 736 733 731 733 735 734 732 735 738 739 740 740 739 740 740 739 740 741 742 744 746 747 749 752 755 758 763 767 770 773 777 782 785 788 792 795 800 804 808 812 816 819 822 826 830 833 837 841 844 847 851 853 856 858 860 862 865 867 869 871 873 875 877 878 880 881 883 884 885 885 886 887 887 888 888 888 888 888 888 888 887 887
735 733 736 736 732 730 729 729 730 728 725 727 734 737 738 740 741 740 740 740 741 742 743 745 748 749 751 752 754 757 762 767 770 773 777 780 784 788 791 795 800 804 808 812 816 819 822 826 829 833 837 840 844 847 850 852 855 858 860 862 864 866 868 870 872 875 876 878 879 881 882 883 884 885 885 886 887 887 888 888 888 888 888 887 887 886
732 731 733 731 727 728 729 729 732 731 727 729 735 737 738 739 739 739 740 740 740 741 742 743 747 750 752 754 755 757 760 765 769 773 776 780 784 787 790 794 799 804 808 812 816 819 823 826 830 833 837 840 843 847 849 852 854 856 859 861 863 865 867 869 872 874 875 877 879 880 881 883 883 884 885 885 886 887 887 887 887 887 887 887 886 886